owner,sensor,date,latitude,longitude,vertical_datum,sea_water_practical_salinity,qcFlag 
TABS,ioos:station:wmo:42050:1,2016-08-01T00:00:00Z,28.8425,-94.2433,2.0,33.1294,11111222 
TABS,ioos:station:wmo:42050:1,2016-08-01T00:30:00Z,28.8425,-94.2433,2.0,33.1306,11111222 
TABS,ioos:station:wmo:42050:1,2016-08-01T01:00:00Z,28.8425,-94.2433,2.0,33.1297,11111222 
TABS,ioos:station:wmo:42050:1,2016-08-01T01:30:00Z,28.8425,-94.2433,2.0,33.1298,11111222 
TABS,ioos:station:wmo:42050:1,2016-08-01T02:00:00Z,28.8425,-94.2433,2.0,33.1302,11111222 
TABS,ioos:station:wmo:42050:1,2016-08-01T02:30:00Z,28.8425,-94.2433,2.0,33.1273,11111222 
TABS,ioos:station:wmo:42050:1,2016-08-01T03:00:00Z,28.8425,-94.2433,2.0,33.1282,11111222 
TABS,ioos:station:wmo:42050:1,2016-08-01T03:30:00Z,28.8425,-94.2433,2.0,33.1306,11111222 
TABS,ioos:station:wmo:42050:1,2016-08-01T04:00:00Z,28.8425,-94.2433,2.0,33.1325,11111222 
TABS,ioos:station:wmo:42050:1,2016-08-01T04:30:00Z,28.8425,-94.2433,2.0,33.1311,11111222 
TABS,ioos:station:wmo:42050:1,2016-08-01T05:00:00Z,28.8425,-94.2433,2.0,33.1287,11111222 
TABS,ioos:station:wmo:42050:1,2016-08-01T05:30:00Z,28.8425,-94.2433,2.0,33.1324,11111222 
TABS,ioos:station:wmo:42050:1,2016-08-01T06:00:00Z,28.8425,-94.2433,2.0,33.1241,11111222 
TABS,ioos:station:wmo:42050:1,2016-08-01T06:30:00Z,28.8425,-94.2433,2.0,33.1036,11111222 
TABS,ioos:station:wmo:42050:1,2016-08-01T07:00:00Z,28.8425,-94.2433,2.0,33.0812,11111222 
TABS,ioos:station:wmo:42050:1,2016-08-01T07:30:00Z,28.8425,-94.2433,2.0,33.0552,11111222 
TABS,ioos:station:wmo:42050:1,2016-08-01T08:00:00Z,28.8425,-94.2433,2.0,33.0406,11111222 
TABS,ioos:station:wmo:42050:1,2016-08-01T08:30:00Z,28.8425,-94.2433,2.0,33.0195,11111222 
TABS,ioos:station:wmo:42050:1,2016-08-01T09:00:00Z,28.8425,-94.2433,2.0,32.9984,11111222 
TABS,ioos:station:wmo:42050:1,2016-08-01T09:30:00Z,28.8425,-94.2433,2.0,32.9864,11111222 
TABS,ioos:station:wmo:42050:1,2016-08-01T10:00:00Z,28.8425,-94.2433,2.0,32.9767,11111222 
TABS,ioos:station:wmo:42050:1,2016-08-01T10:30:00Z,28.8425,-94.2433,2.0,32.9896,11111222 
TABS,ioos:station:wmo:42050:1,2016-08-01T11:00:00Z,28.8425,-94.2433,2.0,33.0907,11111222 
TABS,ioos:station:wmo:42050:1,2016-08-01T11:30:00Z,28.8425,-94.2433,2.0,33.1099,11111222 
TABS,ioos:station:wmo:42050:1,2016-08-01T12:00:00Z,28.8425,-94.2433,2.0,33.1195,11111222 
TABS,ioos:station:wmo:42050:1,2016-08-01T12:30:00Z,28.8425,-94.2433,2.0,33.1285,11111222 
TABS,ioos:station:wmo:42050:1,2016-08-01T13:00:00Z,28.8425,-94.2433,2.0,33.1386,11111222 
TABS,ioos:station:wmo:42050:1,2016-08-01T13:30:00Z,28.8425,-94.2433,2.0,33.148,11111222 
TABS,ioos:station:wmo:42050:1,2016-08-01T14:00:00Z,28.8425,-94.2433,2.0,33.1485,11111222 
TABS,ioos:station:wmo:42050:1,2016-08-01T14:30:00Z,28.8425,-94.2433,2.0,33.146,11111222 
TABS,ioos:station:wmo:42050:1,2016-08-01T15:00:00Z,28.8425,-94.2433,2.0,33.1453,11111222 
TABS,ioos:station:wmo:42050:1,2016-08-01T15:30:00Z,28.8425,-94.2433,2.0,33.137,11111222 
TABS,ioos:station:wmo:42050:1,2016-08-01T16:00:00Z,28.8425,-94.2433,2.0,33.1276,11111222 
TABS,ioos:station:wmo:42050:1,2016-08-01T16:30:00Z,28.8425,-94.2433,2.0,33.122,11111222 
TABS,ioos:station:wmo:42050:1,2016-08-01T17:00:00Z,28.8425,-94.2433,2.0,33.1193,11111222 
TABS,ioos:station:wmo:42050:1,2016-08-01T17:30:00Z,28.8425,-94.2433,2.0,33.1035,11111222 
TABS,ioos:station:wmo:42050:1,2016-08-01T18:00:00Z,28.8425,-94.2433,2.0,33.0685,11111222 
TABS,ioos:station:wmo:42050:1,2016-08-01T18:30:00Z,28.8425,-94.2433,2.0,33.089,11111222 
TABS,ioos:station:wmo:42050:1,2016-08-01T19:00:00Z,28.8425,-94.2433,2.0,33.0584,11111222 
TABS,ioos:station:wmo:42050:1,2016-08-01T19:30:00Z,28.8425,-94.2433,2.0,33.0472,11111222 
TABS,ioos:station:wmo:42050:1,2016-08-01T20:00:00Z,28.8425,-94.2433,2.0,33.0464,11111222 
TABS,ioos:station:wmo:42050:1,2016-08-01T20:30:00Z,28.8425,-94.2433,2.0,33.0578,11111222 
TABS,ioos:station:wmo:42050:1,2016-08-01T21:00:00Z,28.8425,-94.2433,2.0,33.0474,11111222 
TABS,ioos:station:wmo:42050:1,2016-08-01T21:30:00Z,28.8425,-94.2433,2.0,33.071,11111222 
TABS,ioos:station:wmo:42050:1,2016-08-01T22:00:00Z,28.8425,-94.2433,2.0,33.0537,11111222 
TABS,ioos:station:wmo:42050:1,2016-08-01T22:30:00Z,28.8425,-94.2433,2.0,33.0762,11111222 
TABS,ioos:station:wmo:42050:1,2016-08-01T23:00:00Z,28.8425,-94.2433,2.0,33.0934,11111222 
TABS,ioos:station:wmo:42050:1,2016-08-01T23:30:00Z,28.8425,-94.2433,2.0,33.1022,11111222 
TABS,ioos:station:wmo:42050:1,2016-08-02T00:00:00Z,28.8425,-94.2433,2.0,33.0802,11111222 
TABS,ioos:station:wmo:42050:1,2016-08-02T00:30:00Z,28.8425,-94.2433,2.0,33.1123,11111222 
TABS,ioos:station:wmo:42050:1,2016-08-02T01:00:00Z,28.8425,-94.2433,2.0,33.0953,11111222 
TABS,ioos:station:wmo:42050:1,2016-08-02T01:30:00Z,28.8425,-94.2433,2.0,33.1035,11111222 
TABS,ioos:station:wmo:42050:1,2016-08-02T02:00:00Z,28.8425,-94.2433,2.0,33.1042,11111222 
TABS,ioos:station:wmo:42050:1,2016-08-02T02:30:00Z,28.8425,-94.2433,2.0,33.1058,11111222 
TABS,ioos:station:wmo:42050:1,2016-08-02T03:00:00Z,28.8425,-94.2433,2.0,33.1057,11111222 
TABS,ioos:station:wmo:42050:1,2016-08-02T03:30:00Z,28.8425,-94.2433,2.0,33.1067,11111222 
TABS,ioos:station:wmo:42050:1,2016-08-02T04:00:00Z,28.8425,-94.2433,2.0,33.1068,11111222 
TABS,ioos:station:wmo:42050:1,2016-08-02T04:30:00Z,28.8425,-94.2433,2.0,33.1078,11111222 
TABS,ioos:station:wmo:42050:1,2016-08-02T05:00:00Z,28.8425,-94.2433,2.0,33.1064,11111222 
TABS,ioos:station:wmo:42050:1,2016-08-02T05:30:00Z,28.8425,-94.2433,2.0,33.1069,11111222 
TABS,ioos:station:wmo:42050:1,2016-08-02T06:00:00Z,28.8425,-94.2433,2.0,33.1035,11111222 
TABS,ioos:station:wmo:42050:1,2016-08-02T06:30:00Z,28.8425,-94.2433,2.0,33.0754,11111222 
TABS,ioos:station:wmo:42050:1,2016-08-02T07:00:00Z,28.8425,-94.2433,2.0,33.0739,11111222 
TABS,ioos:station:wmo:42050:1,2016-08-02T07:30:00Z,28.8425,-94.2433,2.0,33.0542,11111222 
TABS,ioos:station:wmo:42050:1,2016-08-02T08:00:00Z,28.8425,-94.2433,2.0,33.0592,11111222 
TABS,ioos:station:wmo:42050:1,2016-08-02T08:30:00Z,28.8425,-94.2433,2.0,33.0473,11111222 
TABS,ioos:station:wmo:42050:1,2016-08-02T09:00:00Z,28.8425,-94.2433,2.0,33.0614,11111222 
TABS,ioos:station:wmo:42050:1,2016-08-02T09:30:00Z,28.8425,-94.2433,2.0,33.068,11111222 
TABS,ioos:station:wmo:42050:1,2016-08-02T10:00:00Z,28.8425,-94.2433,2.0,33.1036,11111222 
TABS,ioos:station:wmo:42050:1,2016-08-02T10:30:00Z,28.8425,-94.2433,2.0,33.1333,11111222 
TABS,ioos:station:wmo:42050:1,2016-08-02T11:00:00Z,28.8425,-94.2433,2.0,33.2015,11111222 
TABS,ioos:station:wmo:42050:1,2016-08-02T11:30:00Z,28.8425,-94.2433,2.0,33.2677,11111222 
TABS,ioos:station:wmo:42050:1,2016-08-02T12:00:00Z,28.8425,-94.2433,2.0,33.3126,11111222 
TABS,ioos:station:wmo:42050:1,2016-08-02T12:30:00Z,28.8425,-94.2433,2.0,33.3994,11111222 
TABS,ioos:station:wmo:42050:1,2016-08-02T13:00:00Z,28.8425,-94.2433,2.0,33.4283,11111222 
TABS,ioos:station:wmo:42050:1,2016-08-02T13:30:00Z,28.8425,-94.2433,2.0,33.3972,11111222 
TABS,ioos:station:wmo:42050:1,2016-08-02T14:00:00Z,28.8425,-94.2433,2.0,33.4237,11111222 
TABS,ioos:station:wmo:42050:1,2016-08-02T14:30:00Z,28.8425,-94.2433,2.0,33.4447,11111222 
TABS,ioos:station:wmo:42050:1,2016-08-02T15:00:00Z,28.8425,-94.2433,2.0,33.4627,11111222 
TABS,ioos:station:wmo:42050:1,2016-08-02T15:30:00Z,28.8425,-94.2433,2.0,33.4789,11111222 
TABS,ioos:station:wmo:42050:1,2016-08-02T16:00:00Z,28.8425,-94.2433,2.0,33.0024,11111222 
TABS,ioos:station:wmo:42050:1,2016-08-02T16:30:00Z,28.8425,-94.2433,2.0,32.756,11111222 
TABS,ioos:station:wmo:42050:1,2016-08-02T17:00:00Z,28.8425,-94.2433,2.0,32.9185,11111222 
TABS,ioos:station:wmo:42050:1,2016-08-02T17:30:00Z,28.8425,-94.2433,2.0,32.8475,11111222 
TABS,ioos:station:wmo:42050:1,2016-08-02T18:00:00Z,28.8425,-94.2433,2.0,32.874,11111222 
TABS,ioos:station:wmo:42050:1,2016-08-02T18:30:00Z,28.8425,-94.2433,2.0,32.8393,11111222 
TABS,ioos:station:wmo:42050:1,2016-08-02T19:00:00Z,28.8425,-94.2433,2.0,32.8764,11111222 
TABS,ioos:station:wmo:42050:1,2016-08-02T19:30:00Z,28.8425,-94.2433,2.0,32.952,11111222 
TABS,ioos:station:wmo:42050:1,2016-08-02T20:00:00Z,28.8425,-94.2433,2.0,32.8448,11111222 
TABS,ioos:station:wmo:42050:1,2016-08-02T20:30:00Z,28.8425,-94.2433,2.0,32.9528,11111222 
TABS,ioos:station:wmo:42050:1,2016-08-02T21:00:00Z,28.8425,-94.2433,2.0,32.9414,11111222 
TABS,ioos:station:wmo:42050:1,2016-08-02T21:30:00Z,28.8425,-94.2433,2.0,32.8661,11111222 
TABS,ioos:station:wmo:42050:1,2016-08-02T22:00:00Z,28.8425,-94.2433,2.0,32.9667,11111222 
TABS,ioos:station:wmo:42050:1,2016-08-02T22:30:00Z,28.8425,-94.2433,2.0,32.8743,11111222 
TABS,ioos:station:wmo:42050:1,2016-08-02T23:00:00Z,28.8425,-94.2433,2.0,32.7995,11111222 
TABS,ioos:station:wmo:42050:1,2016-08-02T23:30:00Z,28.8425,-94.2433,2.0,32.5836,11111222 
TABS,ioos:station:wmo:42050:1,2016-08-03T00:00:00Z,28.8425,-94.2433,2.0,32.5598,11111222 
TABS,ioos:station:wmo:42050:1,2016-08-03T00:30:00Z,28.8425,-94.2433,2.0,32.3837,11111222 
TABS,ioos:station:wmo:42050:1,2016-08-03T01:00:00Z,28.8425,-94.2433,2.0,32.3574,11111222 
TABS,ioos:station:wmo:42050:1,2016-08-03T01:30:00Z,28.8425,-94.2433,2.0,32.3627,11111222 
TABS,ioos:station:wmo:42050:1,2016-08-03T02:00:00Z,28.8425,-94.2433,2.0,32.5209,11111222 
TABS,ioos:station:wmo:42050:1,2016-08-03T02:30:00Z,28.8425,-94.2433,2.0,32.5407,11111222 
TABS,ioos:station:wmo:42050:1,2016-08-03T03:00:00Z,28.8425,-94.2433,2.0,32.7268,11111222 
TABS,ioos:station:wmo:42050:1,2016-08-03T03:30:00Z,28.8425,-94.2433,2.0,32.5746,11111222 
TABS,ioos:station:wmo:42050:1,2016-08-03T04:00:00Z,28.8425,-94.2433,2.0,32.5037,11111222 
TABS,ioos:station:wmo:42050:1,2016-08-03T04:30:00Z,28.8425,-94.2433,2.0,32.425,11111222 
TABS,ioos:station:wmo:42050:1,2016-08-03T05:00:00Z,28.8425,-94.2433,2.0,32.2823,11111222 
TABS,ioos:station:wmo:42050:1,2016-08-03T05:30:00Z,28.8425,-94.2433,2.0,32.2554,11111222 
TABS,ioos:station:wmo:42050:1,2016-08-03T06:00:00Z,28.8425,-94.2433,2.0,32.1663,11111222 
TABS,ioos:station:wmo:42050:1,2016-08-03T06:30:00Z,28.8425,-94.2433,2.0,32.1776,11111222 
TABS,ioos:station:wmo:42050:1,2016-08-03T07:00:00Z,28.8425,-94.2433,2.0,32.1241,11111222 
TABS,ioos:station:wmo:42050:1,2016-08-03T07:30:00Z,28.8425,-94.2433,2.0,32.1394,11111222 
TABS,ioos:station:wmo:42050:1,2016-08-03T08:00:00Z,28.8425,-94.2433,2.0,32.1374,11111222 
TABS,ioos:station:wmo:42050:1,2016-08-03T08:30:00Z,28.8425,-94.2433,2.0,32.1357,11111222 
TABS,ioos:station:wmo:42050:1,2016-08-03T09:00:00Z,28.8425,-94.2433,2.0,32.1104,11111222 
TABS,ioos:station:wmo:42050:1,2016-08-03T09:30:00Z,28.8425,-94.2433,2.0,32.1262,11111222 
TABS,ioos:station:wmo:42050:1,2016-08-03T10:00:00Z,28.8425,-94.2433,2.0,32.1746,11111222 
TABS,ioos:station:wmo:42050:1,2016-08-03T10:30:00Z,28.8425,-94.2433,2.0,32.1662,11111222 
TABS,ioos:station:wmo:42050:1,2016-08-03T11:00:00Z,28.8425,-94.2433,2.0,32.1674,11111222 
TABS,ioos:station:wmo:42050:1,2016-08-03T11:30:00Z,28.8425,-94.2433,2.0,32.1743,11111222 
TABS,ioos:station:wmo:42050:1,2016-08-03T12:00:00Z,28.8425,-94.2433,2.0,32.1658,11111222 
TABS,ioos:station:wmo:42050:1,2016-08-03T12:30:00Z,28.8425,-94.2433,2.0,32.1805,11111222 
TABS,ioos:station:wmo:42050:1,2016-08-03T13:00:00Z,28.8425,-94.2433,2.0,32.169,11111222 
TABS,ioos:station:wmo:42050:1,2016-08-03T13:30:00Z,28.8425,-94.2433,2.0,32.1416,11111222 
TABS,ioos:station:wmo:42050:1,2016-08-03T14:00:00Z,28.8425,-94.2433,2.0,32.1392,11111222 
TABS,ioos:station:wmo:42050:1,2016-08-03T14:30:00Z,28.8425,-94.2433,2.0,32.1131,11111222 
TABS,ioos:station:wmo:42050:1,2016-08-03T15:00:00Z,28.8425,-94.2433,2.0,32.1196,11111222 
TABS,ioos:station:wmo:42050:1,2016-08-03T15:30:00Z,28.8425,-94.2433,2.0,32.1233,11111222 
TABS,ioos:station:wmo:42050:1,2016-08-03T16:00:00Z,28.8425,-94.2433,2.0,32.0643,11111222 
TABS,ioos:station:wmo:42050:1,2016-08-03T16:30:00Z,28.8425,-94.2433,2.0,32.0195,11111222 
TABS,ioos:station:wmo:42050:1,2016-08-03T17:00:00Z,28.8425,-94.2433,2.0,31.9996,11111222 
TABS,ioos:station:wmo:42050:1,2016-08-03T17:30:00Z,28.8425,-94.2433,2.0,31.9871,11111222 
TABS,ioos:station:wmo:42050:1,2016-08-03T18:00:00Z,28.8425,-94.2433,2.0,31.9885,11111222 
TABS,ioos:station:wmo:42050:1,2016-08-03T18:30:00Z,28.8425,-94.2433,2.0,31.9864,11111222 
TABS,ioos:station:wmo:42050:1,2016-08-03T19:00:00Z,28.8425,-94.2433,2.0,31.9708,11111222 
TABS,ioos:station:wmo:42050:1,2016-08-03T19:30:00Z,28.8425,-94.2433,2.0,31.9618,11111222 
TABS,ioos:station:wmo:42050:1,2016-08-03T20:00:00Z,28.8425,-94.2433,2.0,31.9509,11111222 
TABS,ioos:station:wmo:42050:1,2016-08-03T20:30:00Z,28.8425,-94.2433,2.0,31.9397,11111222 
TABS,ioos:station:wmo:42050:1,2016-08-03T21:00:00Z,28.8425,-94.2433,2.0,31.9396,11111222 
TABS,ioos:station:wmo:42050:1,2016-08-03T21:30:00Z,28.8425,-94.2433,2.0,31.9484,11111222 
TABS,ioos:station:wmo:42050:1,2016-08-03T22:00:00Z,28.8425,-94.2433,2.0,31.9214,11111222 
TABS,ioos:station:wmo:42050:1,2016-08-03T22:30:00Z,28.8425,-94.2433,2.0,31.9395,11111222 
TABS,ioos:station:wmo:42050:1,2016-08-03T23:00:00Z,28.8425,-94.2433,2.0,31.9317,11111222 
TABS,ioos:station:wmo:42050:1,2016-08-03T23:30:00Z,28.8425,-94.2433,2.0,31.9599,11111222 
TABS,ioos:station:wmo:42050:1,2016-08-04T00:00:00Z,28.8425,-94.2433,2.0,31.9942,11111222 
TABS,ioos:station:wmo:42050:1,2016-08-04T00:30:00Z,28.8425,-94.2433,2.0,31.9959,11111222 
TABS,ioos:station:wmo:42050:1,2016-08-04T01:00:00Z,28.8425,-94.2433,2.0,32.0607,11111222 
TABS,ioos:station:wmo:42050:1,2016-08-04T01:30:00Z,28.8425,-94.2433,2.0,32.0268,11111222 
TABS,ioos:station:wmo:42050:1,2016-08-04T02:00:00Z,28.8425,-94.2433,2.0,32.0261,11111222 
TABS,ioos:station:wmo:42050:1,2016-08-04T02:30:00Z,28.8425,-94.2433,2.0,32.0385,11111222 
TABS,ioos:station:wmo:42050:1,2016-08-04T03:00:00Z,28.8425,-94.2433,2.0,32.019,11111222 
TABS,ioos:station:wmo:42050:1,2016-08-04T03:30:00Z,28.8425,-94.2433,2.0,32.0104,11111222 
TABS,ioos:station:wmo:42050:1,2016-08-04T04:00:00Z,28.8425,-94.2433,2.0,31.9992,11111222 
TABS,ioos:station:wmo:42050:1,2016-08-04T04:30:00Z,28.8425,-94.2433,2.0,31.9894,11111222 
TABS,ioos:station:wmo:42050:1,2016-08-04T05:00:00Z,28.8425,-94.2433,2.0,31.9792,11111222 
TABS,ioos:station:wmo:42050:1,2016-08-04T05:30:00Z,28.8425,-94.2433,2.0,31.967,11111222 
TABS,ioos:station:wmo:42050:1,2016-08-04T06:00:00Z,28.8425,-94.2433,2.0,31.962,11111222 
TABS,ioos:station:wmo:42050:1,2016-08-04T06:30:00Z,28.8425,-94.2433,2.0,31.9436,11111222 
TABS,ioos:station:wmo:42050:1,2016-08-04T07:00:00Z,28.8425,-94.2433,2.0,31.9326,11111222 
TABS,ioos:station:wmo:42050:1,2016-08-04T07:30:00Z,28.8425,-94.2433,2.0,31.9205,11111222 
TABS,ioos:station:wmo:42050:1,2016-08-04T08:00:00Z,28.8425,-94.2433,2.0,31.927,11111222 
TABS,ioos:station:wmo:42050:1,2016-08-04T08:30:00Z,28.8425,-94.2433,2.0,31.9301,11111222 
TABS,ioos:station:wmo:42050:1,2016-08-04T09:00:00Z,28.8425,-94.2433,2.0,31.9355,11111222 
TABS,ioos:station:wmo:42050:1,2016-08-04T09:30:00Z,28.8425,-94.2433,2.0,31.949,11111222 
TABS,ioos:station:wmo:42050:1,2016-08-04T10:00:00Z,28.8425,-94.2433,2.0,31.9559,11111222 
TABS,ioos:station:wmo:42050:1,2016-08-04T10:30:00Z,28.8425,-94.2433,2.0,31.9178,11111222 
TABS,ioos:station:wmo:42050:1,2016-08-04T11:00:00Z,28.8425,-94.2433,2.0,31.8897,11111222 
TABS,ioos:station:wmo:42050:1,2016-08-04T11:30:00Z,28.8425,-94.2433,2.0,31.8697,11111222 
TABS,ioos:station:wmo:42050:1,2016-08-04T12:00:00Z,28.8425,-94.2433,2.0,31.8654,11111222 
TABS,ioos:station:wmo:42050:1,2016-08-04T12:30:00Z,28.8425,-94.2433,2.0,31.8596,11111222 
TABS,ioos:station:wmo:42050:1,2016-08-04T13:00:00Z,28.8425,-94.2433,2.0,31.8628,11111222 
TABS,ioos:station:wmo:42050:1,2016-08-04T13:30:00Z,28.8425,-94.2433,2.0,31.8684,11111222 
TABS,ioos:station:wmo:42050:1,2016-08-04T14:00:00Z,28.8425,-94.2433,2.0,31.8738,11111222 
TABS,ioos:station:wmo:42050:1,2016-08-04T14:30:00Z,28.8425,-94.2433,2.0,31.8698,11111222 
TABS,ioos:station:wmo:42050:1,2016-08-04T15:00:00Z,28.8425,-94.2433,2.0,31.8394,11111222 
TABS,ioos:station:wmo:42050:1,2016-08-04T15:30:00Z,28.8425,-94.2433,2.0,31.8433,11111222 
TABS,ioos:station:wmo:42050:1,2016-08-04T16:00:00Z,28.8425,-94.2433,2.0,31.8443,11111222 
TABS,ioos:station:wmo:42050:1,2016-08-04T16:30:00Z,28.8425,-94.2433,2.0,31.8206,11111222 
TABS,ioos:station:wmo:42050:1,2016-08-04T17:00:00Z,28.8425,-94.2433,2.0,31.8206,11111222 
TABS,ioos:station:wmo:42050:1,2016-08-04T17:30:00Z,28.8425,-94.2433,2.0,31.8143,11111222 
TABS,ioos:station:wmo:42050:1,2016-08-04T18:00:00Z,28.8425,-94.2433,2.0,31.815,11111222 
TABS,ioos:station:wmo:42050:1,2016-08-04T18:30:00Z,28.8425,-94.2433,2.0,31.7593,11111222 
TABS,ioos:station:wmo:42050:1,2016-08-04T19:00:00Z,28.8425,-94.2433,2.0,31.8057,11111222 
TABS,ioos:station:wmo:42050:1,2016-08-04T19:30:00Z,28.8425,-94.2433,2.0,31.8355,11111222 
TABS,ioos:station:wmo:42050:1,2016-08-04T20:00:00Z,28.8425,-94.2433,2.0,31.8222,11111222 
TABS,ioos:station:wmo:42050:1,2016-08-04T20:30:00Z,28.8425,-94.2433,2.0,31.8114,11111222 
TABS,ioos:station:wmo:42050:1,2016-08-04T21:00:00Z,28.8425,-94.2433,2.0,31.8261,11111222 
TABS,ioos:station:wmo:42050:1,2016-08-04T21:30:00Z,28.8425,-94.2433,2.0,31.822,11111222 
TABS,ioos:station:wmo:42050:1,2016-08-04T22:00:00Z,28.8425,-94.2433,2.0,31.8291,11111222 
TABS,ioos:station:wmo:42050:1,2016-08-04T22:30:00Z,28.8425,-94.2433,2.0,31.8263,11111222 
TABS,ioos:station:wmo:42050:1,2016-08-04T23:00:00Z,28.8425,-94.2433,2.0,31.8352,11111222 
TABS,ioos:station:wmo:42050:1,2016-08-04T23:30:00Z,28.8425,-94.2433,2.0,31.8225,11111222 
TABS,ioos:station:wmo:42050:1,2016-08-05T00:00:00Z,28.8425,-94.2433,2.0,31.8189,11111222 
TABS,ioos:station:wmo:42050:1,2016-08-05T00:30:00Z,28.8425,-94.2433,2.0,31.8214,11111222 
TABS,ioos:station:wmo:42050:1,2016-08-05T01:00:00Z,28.8425,-94.2433,2.0,31.8302,11111222 
TABS,ioos:station:wmo:42050:1,2016-08-05T01:30:00Z,28.8425,-94.2433,2.0,31.8299,11111222 
TABS,ioos:station:wmo:42050:1,2016-08-05T02:00:00Z,28.8425,-94.2433,2.0,31.835,11111222 
TABS,ioos:station:wmo:42050:1,2016-08-05T02:30:00Z,28.8425,-94.2433,2.0,31.8368,11111222 
TABS,ioos:station:wmo:42050:1,2016-08-05T03:00:00Z,28.8425,-94.2433,2.0,31.842,11111222 
TABS,ioos:station:wmo:42050:1,2016-08-05T03:30:00Z,28.8425,-94.2433,2.0,31.8471,11111222 
TABS,ioos:station:wmo:42050:1,2016-08-05T04:00:00Z,28.8425,-94.2433,2.0,31.8505,11111222 
TABS,ioos:station:wmo:42050:1,2016-08-05T04:30:00Z,28.8425,-94.2433,2.0,31.8583,11111222 
TABS,ioos:station:wmo:42050:1,2016-08-05T05:00:00Z,28.8425,-94.2433,2.0,31.8648,11111222 
TABS,ioos:station:wmo:42050:1,2016-08-05T05:30:00Z,28.8425,-94.2433,2.0,31.8705,11111222 
TABS,ioos:station:wmo:42050:1,2016-08-05T06:00:00Z,28.8425,-94.2433,2.0,31.881,11111222 
TABS,ioos:station:wmo:42050:1,2016-08-05T06:30:00Z,28.8425,-94.2433,2.0,31.8834,11111222 
TABS,ioos:station:wmo:42050:1,2016-08-05T07:00:00Z,28.8425,-94.2433,2.0,31.8877,11111222 
TABS,ioos:station:wmo:42050:1,2016-08-05T07:30:00Z,28.8425,-94.2433,2.0,31.8896,11111222 
TABS,ioos:station:wmo:42050:1,2016-08-05T08:00:00Z,28.8425,-94.2433,2.0,31.8702,11111222 
TABS,ioos:station:wmo:42050:1,2016-08-05T08:30:00Z,28.8425,-94.2433,2.0,31.8721,11111222 
TABS,ioos:station:wmo:42050:1,2016-08-05T09:00:00Z,28.8425,-94.2433,2.0,31.8845,11111222 
TABS,ioos:station:wmo:42050:1,2016-08-05T09:30:00Z,28.8425,-94.2433,2.0,31.8933,11111222 
TABS,ioos:station:wmo:42050:1,2016-08-05T10:00:00Z,28.8425,-94.2433,2.0,31.8876,11111222 
TABS,ioos:station:wmo:42050:1,2016-08-05T10:30:00Z,28.8425,-94.2433,2.0,31.8996,11111222 
TABS,ioos:station:wmo:42050:1,2016-08-05T11:00:00Z,28.8425,-94.2433,2.0,31.8884,11111222 
TABS,ioos:station:wmo:42050:1,2016-08-05T11:30:00Z,28.8425,-94.2433,2.0,31.9124,11111222 
TABS,ioos:station:wmo:42050:1,2016-08-05T12:00:00Z,28.8425,-94.2433,2.0,31.9143,11111222 
TABS,ioos:station:wmo:42050:1,2016-08-05T12:30:00Z,28.8425,-94.2433,2.0,31.9144,11111222 
TABS,ioos:station:wmo:42050:1,2016-08-05T13:00:00Z,28.8425,-94.2433,2.0,31.9103,11111222 
TABS,ioos:station:wmo:42050:1,2016-08-05T13:30:00Z,28.8425,-94.2433,2.0,31.8986,11111222 
TABS,ioos:station:wmo:42050:1,2016-08-05T14:00:00Z,28.8425,-94.2433,2.0,31.9048,11111222 
TABS,ioos:station:wmo:42050:1,2016-08-05T14:30:00Z,28.8425,-94.2433,2.0,31.8984,11111222 
TABS,ioos:station:wmo:42050:1,2016-08-05T15:00:00Z,28.8425,-94.2433,2.0,31.8973,11111222 
TABS,ioos:station:wmo:42050:1,2016-08-05T15:30:00Z,28.8425,-94.2433,2.0,31.8929,11111222 
TABS,ioos:station:wmo:42050:1,2016-08-05T16:00:00Z,28.8425,-94.2433,2.0,31.8659,11111222 
TABS,ioos:station:wmo:42050:1,2016-08-05T16:30:00Z,28.8425,-94.2433,2.0,31.8731,11111222 
TABS,ioos:station:wmo:42050:1,2016-08-05T17:00:00Z,28.8425,-94.2433,2.0,31.8731,11111222 
TABS,ioos:station:wmo:42050:1,2016-08-05T17:30:00Z,28.8425,-94.2433,2.0,31.8792,11111222 
TABS,ioos:station:wmo:42050:1,2016-08-05T18:00:00Z,28.8425,-94.2433,2.0,31.8557,11111222 
TABS,ioos:station:wmo:42050:1,2016-08-05T18:30:00Z,28.8425,-94.2433,2.0,31.9042,11111222 
TABS,ioos:station:wmo:42050:1,2016-08-05T19:00:00Z,28.8425,-94.2433,2.0,31.9019,11111222 
TABS,ioos:station:wmo:42050:1,2016-08-05T19:30:00Z,28.8425,-94.2433,2.0,31.9412,11111222 
TABS,ioos:station:wmo:42050:1,2016-08-05T20:00:00Z,28.8425,-94.2433,2.0,31.9538,11111222 
TABS,ioos:station:wmo:42050:1,2016-08-05T20:30:00Z,28.8425,-94.2433,2.0,31.9537,11111222 
TABS,ioos:station:wmo:42050:1,2016-08-05T21:00:00Z,28.8425,-94.2433,2.0,31.9852,11111222 
TABS,ioos:station:wmo:42050:1,2016-08-05T21:30:00Z,28.8425,-94.2433,2.0,32.0251,11111222 
TABS,ioos:station:wmo:42050:1,2016-08-05T22:00:00Z,28.8425,-94.2433,2.0,32.0761,11111222 
TABS,ioos:station:wmo:42050:1,2016-08-05T22:30:00Z,28.8425,-94.2433,2.0,32.1698,11111222 
TABS,ioos:station:wmo:42050:1,2016-08-05T23:00:00Z,28.8425,-94.2433,2.0,32.1819,11111222 
TABS,ioos:station:wmo:42050:1,2016-08-05T23:30:00Z,28.8425,-94.2433,2.0,32.2005,11111222 
TABS,ioos:station:wmo:42050:1,2016-08-06T00:00:00Z,28.8425,-94.2433,2.0,32.2169,11111222 
TABS,ioos:station:wmo:42050:1,2016-08-06T00:30:00Z,28.8425,-94.2433,2.0,32.176,11111222 
TABS,ioos:station:wmo:42050:1,2016-08-06T01:00:00Z,28.8425,-94.2433,2.0,32.1878,11111222 
TABS,ioos:station:wmo:42050:1,2016-08-06T01:30:00Z,28.8425,-94.2433,2.0,32.2408,11111222 
TABS,ioos:station:wmo:42050:1,2016-08-06T02:00:00Z,28.8425,-94.2433,2.0,32.2214,11111222 
TABS,ioos:station:wmo:42050:1,2016-08-06T02:30:00Z,28.8425,-94.2433,2.0,32.2093,11111222 
TABS,ioos:station:wmo:42050:1,2016-08-06T03:00:00Z,28.8425,-94.2433,2.0,32.2205,11111222 
TABS,ioos:station:wmo:42050:1,2016-08-06T03:30:00Z,28.8425,-94.2433,2.0,32.2259,11111222 
TABS,ioos:station:wmo:42050:1,2016-08-06T04:00:00Z,28.8425,-94.2433,2.0,32.2379,11111222 
TABS,ioos:station:wmo:42050:1,2016-08-06T04:30:00Z,28.8425,-94.2433,2.0,32.2527,11111222 
TABS,ioos:station:wmo:42050:1,2016-08-06T05:00:00Z,28.8425,-94.2433,2.0,32.2641,11111222 
TABS,ioos:station:wmo:42050:1,2016-08-06T05:30:00Z,28.8425,-94.2433,2.0,32.2791,11111222 
TABS,ioos:station:wmo:42050:1,2016-08-06T06:00:00Z,28.8425,-94.2433,2.0,32.2862,11111222 
TABS,ioos:station:wmo:42050:1,2016-08-06T06:30:00Z,28.8425,-94.2433,2.0,32.3051,11111222 
TABS,ioos:station:wmo:42050:1,2016-08-06T07:00:00Z,28.8425,-94.2433,2.0,32.3426,11111222 
TABS,ioos:station:wmo:42050:1,2016-08-06T07:30:00Z,28.8425,-94.2433,2.0,32.3432,11111222 
TABS,ioos:station:wmo:42050:1,2016-08-06T08:00:00Z,28.8425,-94.2433,2.0,32.3342,11111222 
TABS,ioos:station:wmo:42050:1,2016-08-06T08:30:00Z,28.8425,-94.2433,2.0,32.3229,11111222 
TABS,ioos:station:wmo:42050:1,2016-08-06T09:00:00Z,28.8425,-94.2433,2.0,32.3194,11111222 
TABS,ioos:station:wmo:42050:1,2016-08-06T09:30:00Z,28.8425,-94.2433,2.0,32.308,11111222 
TABS,ioos:station:wmo:42050:1,2016-08-06T10:00:00Z,28.8425,-94.2433,2.0,32.2839,11111222 
TABS,ioos:station:wmo:42050:1,2016-08-06T10:30:00Z,28.8425,-94.2433,2.0,32.2476,11111222 
TABS,ioos:station:wmo:42050:1,2016-08-06T11:00:00Z,28.8425,-94.2433,2.0,32.2364,11111222 
TABS,ioos:station:wmo:42050:1,2016-08-06T11:30:00Z,28.8425,-94.2433,2.0,32.2426,11111222 
TABS,ioos:station:wmo:42050:1,2016-08-06T12:00:00Z,28.8425,-94.2433,2.0,32.2442,11111222 